Wind_Speed
21 18 15 14 14 14 12 11 10 8 8 9 10 11 11 12 13 14 15 15 16 16 16 17 17 18 18 19 19 20 20 21 21 21 21 21 21 19 17 15 13 11 10 9 9 9 9 9 8 7 6 5 4 4 4 4 4 3 3 4 4 4 4 4 3 3 4 4 5 5 5 5 4 4 4 4 4 4 4 5 5 5 5 5 5
20 17 14 13 14 14 12 11 10 8 7 8 10 11 12 11 12 13 14 15 15 16 16 17 17 18 18 19 19 19 20 20 20 20 20 21 20 18 16 14 12 11 10 9 9 9 9 9 8 7 6 5 4 3 3 3 3 2 3 3 3 3 3 3 3 3 4 4 4 5 5 5 5 4 4 4 4 4 4 5 5 5 5 5 5
19 17 14 14 15 14 13 11 10 8 7 8 9 10 11 11 12 13 14 14 15 16 16 17 18 18 18 19 18 19 19 20 20 20 20 20 19 17 15 13 12 10 9 9 9 9 8 8 7 7 6 5 3 3 3 3 2 2 2 2 2 2 2 2 2 3 3 4 4 4 5 5 5 5 4 4 4 4 4 4 4 5 5 5 5
19 17 16 16 15 14 13 11 10 9 8 8 9 10 11 11 12 12 13 14 15 16 17 18 18 19 19 19 19 19 19 20 20 20 20 20 18 16 14 12 11 10 9 9 8 8 8 8 7 7 5 4 3 3 3 2 2 2 2 2 2 1 1 1 2 3 3 3 4 4 4 4 4 4 4 4 4 4 4 4 4 4 5 5 5
19 18 17 17 16 14 13 11 10 9 8 8 9 10 10 11 11 12 14 15 16 17 18 19 19 20 20 20 20 19 19 20 20 20 20 19 17 15 14 12 11 10 9 9 8 8 8 8 7 6 5 4 4 3 3 2 2 2 2 2 1 0 1 2 2 2 3 3 3 3 3 4 4 4 4 4 4 4 4 4 4 4 4 5 5
19 19 18 18 16 14 13 12 10 9 8 8 9 9 10 10 11 13 14 16 17 18 19 20 20 20 20 20 20 20 20 20 20 20 20 19 16 15 14 12 11 10 10 9 9 8 8 8 7 7 6 5 4 4 3 3 3 2 2 2 1 1 2 2 2 2 2 3 3 3 3 3 3 4 4 4 4 4 4 4 4 4 4 4 4
19 19 19 18 15 14 13 12 10 9 8 8 9 9 9 10 12 13 15 17 18 19 20 20 21 20 20 21 21 20 20 20 20 20 20 19 17 15 14 12 11 10 10 9 8 8 8 8 8 7 6 6 5 5 5 4 4 4 3 2 1 1 2 2 3 3 2 3 3 2 3 3 3 3 4 4 4 4 3 3 3 4 4 4 4
18 18 18 16 15 14 13 11 10 9 8 8 8 9 10 11 12 14 16 18 19 20 20 21 21 20 20 21 21 21 21 20 20 20 20 20 18 15 15 13 11 10 9 9 8 8 8 8 8 7 7 7 6 6 6 6 6 5 4 3 2 2 2 2 3 3 3 3 2 2 3 3 2 3 3 3 3 3 3 3 3 3 3 3 3
17 17 17 16 15 14 13 11 10 9 8 8 8 9 10 11 13 15 17 19 20 21 21 21 21 21 20 21 21 21 21 20 21 20 20 20 18 16 15 14 12 10 9 9 8 8 8 7 8 8 8 7 7 7 7 6 6 6 5 4 3 2 2 3 3 4 4 3 2 3 3 2 1 2 2 2 2 2 2 2 2 3 3 3 3
17 17 17 16 15 14 13 11 10 9 8 8 9 10 11 12 14 16 18 20 21 22 22 22 21 21 21 21 21 21 20 20 21 21 20 19 18 17 16 15 13 11 10 9 8 8 7 7 7 8 8 8 7 7 7 7 7 7 6 4 3 2 2 3 3 3 4 4 4 3 2 1 1 1 1 1 1 1 2 2 2 2 3 3 3
17 17 17 16 15 14 12 11 10 9 9 9 10 10 11 13 15 17 20 21 23 24 23 23 22 22 21 21 21 20 20 20 20 20 20 19 17 17 17 16 14 12 10 9 8 8 7 7 7 7 8 8 7 7 7 7 7 7 6 5 3 2 2 3 2 2 4 5 4 3 2 1 1 1 1 1 1 2 2 3 3 3 3 3 3
17 17 17 15 14 13 11 10 9 9 10 10 10 10 12 14 16 18 20 22 24 24 24 23 23 22 22 21 20 20 19 19 19 20 20 19 16 15 16 16 14 13 11 10 10 9 9 8 7 7 8 8 8 7 6 7 8 8 7 5 3 2 2 2 1 3 5 4 2 1 1 2 2 2 2 2 3 3 3 3 3 3 3 3 4
18 17 16 14 13 12 11 10 10 10 10 10 10 11 13 14 16 18 20 22 24 24 23 23 23 22 21 21 20 19 18 18 18 19 20 18 15 15 15 15 14 13 12 12 11 11 10 8 7 7 7 8 8 7 6 6 7 8 7 6 4 3 2 2 1 3 4 2 1 1 1 1 2 2 2 3 3 4 4 4 4 3 3 3 4
18 17 15 13 12 12 11 11 11 10 10 10 10 11 13 15 16 17 19 21 23 23 22 22 22 22 21 20 19 18 18 18 18 18 18 16 15 14 14 14 14 14 13 12 12 11 10 9 8 7 7 7 7 6 6 6 6 7 7 6 5 3 3 2 1 2 3 1 1 0 1 1 2 2 3 3 3 4 5 5 4 4 4 3 4
18 17 15 14 12 12 12 11 11 10 10 10 10 12 13 15 16 16 17 20 21 21 20 20 21 21 21 20 19 18 17 17 17 17 16 15 14 14 13 13 13 13 14 13 12 11 10 10 9 8 6 6 6 6 6 5 6 6 6 6 5 4 3 2 1 0 1 1 1 1 1 2 3 3 3 3 3 4 5 5 5 5 4 4 4
18 17 15 13 12 12 12 12 11 10 10 10 11 12 13 15 16 16 17 19 19 19 19 19 19 20 20 19 18 17 17 17 16 16 15 13 13 13 13 12 12 13 13 13 13 11 10 10 9 8 6 6 6 6 5 5 5 6 6 6 6 4 3 2 2 1 1 1 2 2 2 3 3 4 4 4 4 4 4 5 5 5 5 4 4
18 16 14 13 13 13 13 12 11 11 11 11 12 12 13 15 16 17 18 19 19 19 19 18 18 19 19 19 18 17 16 16 16 16 14 13 13 12 13 12 12 12 12 13 13 12 10 9 9 8 7 5 6 6 6 5 5 5 6 6 6 4 3 2 2 2 2 3 3 4 4 4 4 5 5 5 5 4 5 5 5 5 5 5 5
17 15 14 13 13 14 14 13 13 12 12 12 12 13 14 16 18 19 20 21 20 20 19 18 18 18 18 18 18 16 15 16 16 15 14 13 13 13 13 14 13 12 12 13 13 12 11 9 9 9 7 5 5 6 6 5 5 5 5 6 5 4 3 3 2 2 3 4 4 5 5 5 5 5 6 5 5 5 5 5 5 5 5 5 5
16 15 13 13 14 15 15 14 13 12 12 12 13 14 15 16 18 20 20 21 21 20 19 17 17 18 18 18 17 16 15 15 15 15 14 13 13 13 14 14 14 13 12 12 13 12 11 10 9 9 9 6 5 6 7 5 4 6 6 6 6 5 5 4 3 3 3 4 4 5 5 5 5 6 6 5 5 6 6 6 6 6 6 6 5
15 14 13 14 15 15 15 14 14 13 13 13 14 15 15 16 17 18 18 19 20 19 18 16 16 17 17 17 17 16 15 14 14 14 14 13 13 13 13 14 14 13 12 12 12 12 11 10 9 9 10 9 6 6 7 5 5 7 7 6 6 6 6 6 5 4 4 4 4 5 5 5 5 5 5 5 5 6 7 7 7 7 7 7 7
14 14 15 15 15 16 15 14 13 13 13 13 14 15 15 15 15 16 18 19 18 17 16 15 16 17 17 16 16 15 14 12 11 12 12 12 13 13 12 13 13 13 12 13 12 11 10 10 9 9 10 11 9 6 6 5 5 7 7 7 7 7 7 7 7 6 5 4 4 5 4 5 5 5 5 5 6 6 7 8 8 8 8 8 8
13 13 14 14 14 15 15 14 13 12 12 12 12 12 12 12 13 16 18 18 16 15 14 15 16 17 16 14 14 13 12 11 10 10 11 12 13 13 12 13 13 13 14 14 13 11 10 9 9 9 10 11 11 8 6 5 5 7 7 7 7 7 8 8 8 8 7 6 5 4 4 4 5 5 5 5 6 7 8 9 9 10 9 9 9
14 13 13 13 13 12 11 12 12 10 9 9 9 9 9 10 13 15 16 15 13 12 13 15 16 16 14 12 12 12 11 10 10 10 10 12 13 13 13 14 15 15 16 16 14 12 11 10 9 9 9 10 11 9 7 5 6 6 7 8 8 8 9 8 8 9 8 7 6 5 4 4 5 5 5 6 6 7 9 10 10 11 10 10 10
15 14 13 13 12 10 9 8 7 7 6 6 7 7 8 10 12 14 15 13 11 11 13 16 16 15 13 13 13 12 11 10 11 11 11 11 12 13 15 16 17 17 17 17 15 14 13 12 10 9 8 9 10 10 8 7 7 7 8 10 9 9 9 8 8 9 9 8 7 6 5 4 5 5 6 6 7 8 9 10 11 11 11 11 11
14 14 14 12 11 9 7 6 5 5 5 6 6 6 6 9 12 14 14 13 12 13 15 17 16 15 15 15 14 12 12 13 13 13 12 12 12 13 15 16 17 17 17 16 16 15 14 14 13 11 9 9 9 9 9 8 8 8 9 11 11 10 10 9 9 9 9 8 8 7 6 5 5 5 6 7 7 8 8 9 10 11 10 11 10
14 14 14 13 11 9 7 6 5 5 6 6 5 5 5 9 12 14 15 14 13 14 16 16 15 16 16 16 16 16 16 17 16 13 12 12 12 12 13 15 16 16 16 15 15 15 15 14 15 13 11 9 8 8 9 9 8 8 8 11 12 12 12 11 9 10 10 9 9 8 7 6 6 7 7 7 7 7 7 8 10 10 10 10 10
15 15 15 13 12 9 7 7 7 7 6 5 5 4 6 9 12 15 15 15 14 14 14 14 15 15 16 17 17 17 17 17 15 12 10 11 11 11 11 12 14 14 14 14 14 14 14 14 15 14 13 11 9 8 8 8 9 8 8 10 13 13 13 13 11 11 11 10 9 8 8 8 8 8 8 7 7 7 7 8 10 10 10 10 9
16 16 15 14 12 9 8 8 8 7 6 5 5 5 8 11 13 15 16 15 14 13 13 14 14 15 15 15 15 15 14 15 14 11 10 11 11 10 10 10 11 13 13 14 13 13 13 14 14 14 13 12 11 9 8 8 10 9 8 9 12 13 13 14 13 13 11 11 10 9 9 9 9 9 8 7 7 7 7 8 9 10 10 9 8
16 15 15 14 12 9 8 9 9 8 6 5 5 7 10 13 15 17 17 14 12 12 12 12 13 12 12 12 12 12 11 13 14 11 11 12 11 10 10 11 11 11 12 13 13 12 12 13 13 13 13 13 13 12 11 10 10 10 8 8 11 13 13 14 15 15 13 11 10 10 10 9 9 9 9 8 7 7 7 7 8 9 10 9 8
16 15 14 13 11 10 9 10 10 8 7 5 6 9 11 14 16 17 16 13 11 11 12 12 12 12 12 11 11 11 11 13 14 11 11 12 10 9 10 11 11 11 12 13 13 13 12 12 13 13 13 15 15 14 13 13 12 11 9 8 9 11 12 14 16 17 16 13 11 11 10 10 10 10 9 9 8 7 7 7 7 8 9 8 8
16 16 14 13 12 11 11 10 10 8 7 6 8 10 12 14 16 16 15 13 12 12 12 13 12 11 11 10 10 11 12 14 13 10 10 11 9 9 11 11 10 10 12 13 13 13 13 12 11 11 12 14 15 16 15 14 14 13 12 10 10 11 11 12 15 17 17 15 12 11 11 11 11 11 10 10 9 8 8 8 7 8 8 8 7
17 16 15 13 12 12 12 10 9 8 7 7 8 9 11 13 15 15 15 15 14 14 13 13 12 11 11 10 9 10 13 13 10 7 8 11 10 11 13 11 10 10 11 12 12 13 13 11 10 10 11 13 14 16 15 15 16 16 15 14 12 12 12 11 14 17 18 17 14 11 11 11 11 11 11 10 10 9 8 8 8 7 7 7 7
17 17 17 16 14 12 10 9 8 8 7 8 9 9 10 11 12 14 15 15 15 15 14 13 13 12 11 10 9 10 11 11 7 7 10 13 13 14 13 11 11 11 10 11 13 14 14 13 11 11 11 13 14 15 15 15 17 18 16 15 14 13 11 11 14 16 17 17 16 13 11 11 11 11 12 11 10 10 9 8 8 8 7 7 7
15 16 17 18 17 14 12 9 7 7 8 9 9 9 10 10 11 12 13 14 15 15 15 14 13 13 11 10 9 9 10 10 9 10 12 14 15 14 11 10 11 12 12 12 13 15 16 15 13 12 12 13 13 13 14 15 16 18 16 16 16 13 10 11 14 16 16 17 17 15 12 12 12 12 12 11 10 10 9 9 9 8 8 8 7
15 15 14 15 16 17 17 13 9 8 9 10 10 10 11 10 11 12 13 14 14 15 16 15 14 13 12 10 9 8 10 12 12 12 12 12 13 13 12 12 12 13 14 13 13 14 16 17 15 14 13 13 13 13 13 14 15 16 15 15 17 14 10 12 15 17 17 16 17 16 14 12 13 13 12 11 11 11 10 10 9 9 8 8 8
15 15 13 13 14 15 16 14 10 9 10 11 12 12 12 11 11 12 13 13 14 15 16 16 16 15 12 10 8 7 11 14 14 14 13 10 10 12 13 13 13 13 14 14 15 14 15 17 17 16 15 14 15 15 14 14 15 15 14 14 16 16 13 12 15 16 16 16 16 16 15 13 13 14 13 12 12 11 11 10 10 9 8 8 8
17 16 15 14 14 13 14 15 13 12 11 12 13 13 13 12 12 13 13 13 14 15 16 16 17 17 15 12 9 8 9 11 13 14 13 12 10 11 12 11 12 14 15 15 16 16 16 18 18 17 16 16 17 17 15 15 14 15 14 14 16 19 18 15 15 15 15 15 16 16 15 14 14 15 14 13 12 12 11 11 10 9 8 8 8
18 18 16 14 12 10 9 12 15 13 12 13 14 14 14 12 12 14 14 14 15 15 16 16 17 18 17 14 10 8 8 9 10 12 12 12 11 11 12 12 13 15 16 17 16 17 18 19 20 19 18 18 18 18 17 15 15 15 14 14 17 20 21 20 18 18 18 17 17 17 16 15 16 16 15 14 13 12 11 11 10 9 9 8 8
18 18 16 13 10 9 7 7 12 12 12 13 14 15 15 14 13 14 15 15 16 16 17 17 17 17 16 14 11 9 9 10 11 12 12 13 13 13 13 13 15 17 18 18 18 19 20 20 22 21 19 19 20 20 18 17 15 15 14 14 19 21 21 22 20 20 20 20 19 19 17 16 17 17 16 14 14 13 12 11 10 10 9 9 8
17 17 16 14 14 13 10 9 13 14 13 14 14 14 15 15 15 16 16 17 17 17 17 17 17 17 16 14 12 11 11 12 13 14 14 14 14 14 15 15 15 17 18 18 19 19 20 20 21 22 21 20 21 21 20 18 16 15 15 14 18 20 22 23 21 20 20 19 20 20 19 17 17 18 16 15 15 14 12 11 11 11 10 9 9
17 17 17 16 16 14 11 12 16 16 15 15 14 14 15 16 17 18 18 19 19 18 18 18 18 17 16 14 13 12 13 14 15 15 15 15 15 16 16 17 17 17 18 19 20 20 20 21 22 22 22 21 21 22 21 19 18 17 17 15 16 18 20 23 22 21 19 18 19 20 18 17 18 18 17 15 15 14 13 12 12 12 11 11 10
17 17 17 17 16 14 13 15 17 17 16 16 15 14 15 16 17 19 19 20 20 19 19 18 18 17 16 15 15 15 15 16 16 17 17 17 18 18 19 19 19 19 20 21 22 22 21 21 23 23 23 22 22 22 22 20 19 19 19 18 17 18 19 22 23 22 20 19 20 20 18 18 19 18 17 16 16 15 14 13 12 13 13 12 11
17 17 17 17 16 16 16 18 18 18 17 17 16 15 16 17 18 18 20 21 21 21 20 19 18 18 17 16 17 17 17 18 19 18 18 18 19 20 20 20 20 20 21 22 22 23 22 23 24 24 23 22 22 22 21 22 22 21 21 21 21 21 20 21 23 24 23 21 22 21 19 19 19 19 18 17 16 16 15 14 13 14 14 14 13
18 17 18 18 19 19 19 19 19 19 19 18 17 16 16 17 18 19 20 21 22 22 21 20 19 19 18 17 18 18 19 20 19 18 18 19 20 20 20 20 21 21 21 22 23 23 23 23 23 24 24 23 23 22 22 23 23 24 23 23 24 22 20 22 26 27 25 23 22 22 21 20 20 19 19 18 18 17 16 15 14 14 14 15 15
19 19 20 20 20 20 20 20 20 19 19 19 19 18 18 18 19 20 20 21 22 22 22 21 20 20 19 19 19 19 20 20 20 19 19 19 20 20 19 20 21 21 20 22 24 22 21 22 22 24 25 24 25 24 23 24 25 26 26 25 27 24 21 23 27 28 25 23 23 23 22 21 20 20 20 19 19 18 17 17 16 15 15 16 16
21 21 22 22 21 20 20 20 20 19 19 19 19 19 19 19 20 21 21 22 22 23 23 22 22 21 21 21 21 20 21 21 21 21 21 21 21 21 21 20 20 20 21 23 23 21 21 22 23 25 25 26 27 26 25 25 26 26 27 27 27 26 24 24 26 27 25 24 24 24 24 23 21 21 22 21 20 20 19 18 17 17 16 17 17
23 23 23 23 22 21 20 20 20 19 19 19 19 19 20 20 21 21 22 22 22 23 23 23 23 23 22 22 22 22 22 23 22 22 22 22 21 22 22 21 20 20 21 22 23 23 22 23 24 25 26 27 27 27 27 27 26 26 27 28 28 27 27 26 26 27 27 26 25 26 25 24 22 22 23 22 21 21 20 19 18 18 18 18 18
25 25 24 24 23 21 21 21 21 20 20 19 20 20 20 21 21 22 22 22 22 23 23 24 24 24 24 24 24 24 24 24 24 23 22 22 22 22 22 21 21 20 20 21 23 23 23 24 25 26 27 27 27 28 28 28 27 27 28 30 29 27 28 28 28 28 27 27 26 26 26 24 24 24 24 23 23 23 22 20 19 19 19 19 19
26 26 25 25 24 23 22 22 22 21 20 20 20 20 21 22 22 22 23 23 23 23 24 24 25 25 25 25 25 25 25 25 24 23 23 23 23 23 23 23 22 22 22 22 23 23 24 25 26 26 27 28 29 29 28 28 28 28 28 30 31 27 26 28 30 30 28 28 27 27 27 26 25 25 25 25 25 24 23 22 20 20 20 20 19
26 26 26 26 25 24 24 23 22 21 20 20 21 21 21 22 22 23 23 23 24 24 24 25 25 25 25 25 26 26 26 25 24 23 23 23 23 23 24 24 23 24 24 24 24 24 24 25 26 27 27 28 29 30 29 29 29 28 28 31 33 29 25 24 28 32 31 29 28 28 28 27 27 28 27 26 26 25 24 23 21 20 20 20 20
27 27 27 27 26 26 25 24 23 22 21 21 21 21 21 22 23 23 24 24 24 25 25 25 25 26 26 26 27 27 26 25 24 23 23 23 23 24 23 24 23 23 24 25 25 26 25 25 27 28 29 28 28 30 31 30 29 29 28 30 33 30 25 22 25 33 34 31 30 30 30 30 30 29 27 25 25 24 23 23 23 22 21 21 21
Wind_Direction
311 303 293 287 284 284 286 288 292 302 312 316 318 319 326 334 334 336 337 339 339 338 337 335 333 332 334 337 341 342 343 343 346 349 352 355 357 356 355 355 355 356 1 9 14 15 13 12 12 15 20 28 36 43 46 46 44 42 42 41 42 44 44 40 39 41 41 43 48 49 44 40 37 30 22 21 27 35 40 40 42 41 34 31 30
302 297 291 285 283 282 281 282 287 296 307 312 314 317 323 331 334 335 337 337 336 333 330 329 330 331 335 339 342 344 344 345 348 351 354 358 359 358 358 359 358 358 3 11 19 20 19 17 17 18 19 22 31 46 57 61 61 53 44 42 42 42 43 38 39 46 47 45 45 45 43 37 30 25 17 14 18 26 34 37 39 38 33 30 28
289 287 287 283 280 278 277 276 282 290 300 306 309 314 321 329 334 335 335 334 331 327 325 327 329 333 337 340 344 346 346 347 350 352 355 359 1 1 -0 2 1 -0 5 11 19 23 23 23 23 22 20 16 19 35 52 61 61 54 43 41 39 35 40 35 35 42 47 49 43 41 43 38 29 23 17 14 14 23 29 32 35 32 28 24 20
276 276 278 277 276 273 270 271 277 284 293 301 306 312 320 330 334 333 330 329 326 324 326 328 331 335 339 342 345 347 348 348 350 352 356 359 2 3 3 4 3 2 7 10 17 23 28 29 29 27 22 14 10 22 37 48 52 48 49 55 50 15 4 10 27 38 44 53 50 40 41 41 31 23 21 17 16 20 22 25 28 26 21 15 12
269 268 269 271 271 265 263 267 272 280 289 297 304 312 322 330 331 327 324 324 324 326 328 331 334 337 340 342 345 347 348 348 351 351 354 358 1 5 6 5 3 4 7 10 16 21 29 32 33 32 26 17 7 9 17 24 33 38 47 73 85 28 8 11 17 33 43 54 56 44 45 46 32 25 26 20 16 15 16 19 21 18 14 9 6
265 261 261 264 263 259 259 263 270 278 288 296 303 313 323 326 323 321 321 323 325 328 330 332 335 338 340 341 343 347 348 348 351 350 352 356 359 4 8 7 5 6 6 9 14 18 27 32 33 34 29 18 5 0 2 4 8 10 17 59 90 71 30 20 18 36 54 61 59 50 55 55 37 29 28 21 15 11 13 15 15 12 8 5 3
260 255 255 257 254 253 256 261 269 276 285 294 304 313 318 318 317 318 322 325 327 329 330 333 335 338 339 340 342 346 348 347 349 350 350 353 356 0 6 8 7 7 6 7 9 14 23 28 29 30 29 19 6 359 357 358 356 356 359 18 51 56 45 36 34 45 58 64 64 61 63 58 45 36 33 24 13 6 5 8 9 5 1 0 359
255 251 250 249 247 249 254 259 265 272 283 293 303 309 310 313 316 321 324 326 328 329 331 333 335 337 339 340 342 346 348 347 348 350 349 350 352 356 2 6 8 8 7 6 5 9 17 21 21 23 24 18 8 359 355 355 354 355 356 3 20 34 61 65 56 57 58 55 60 69 62 52 45 44 39 30 14 1 357 359 359 353 349 349 348
251 244 243 242 243 247 251 256 262 271 282 292 299 301 306 314 319 324 325 327 328 331 332 333 335 337 340 341 343 347 347 346 347 349 349 349 349 351 356 2 5 8 9 7 3 5 10 13 14 16 16 13 7 359 355 353 354 355 355 357 12 30 68 83 77 73 66 57 57 60 53 36 38 45 43 37 13 353 348 344 342 338 334 332 332
246 240 238 238 240 244 248 255 262 272 281 288 291 298 308 317 322 325 327 329 330 332 334 334 336 338 341 342 343 346 347 346 345 346 348 348 347 348 352 357 2 6 9 7 4 4 6 6 9 12 12 9 6 1 355 353 354 356 357 358 10 41 72 84 81 87 80 65 53 46 27 354 17 22 19 16 349 335 329 324 324 322 320 318 318
244 238 237 237 239 242 248 255 263 273 278 281 288 301 313 319 324 328 330 332 333 334 335 336 337 339 341 342 343 345 346 344 343 343 346 347 346 346 348 353 359 3 6 6 6 5 3 4 6 8 8 7 4 359 355 353 356 359 2 4 9 48 81 85 99 115 83 59 43 25 345 335 349 339 326 323 317 313 308 305 308 311 313 313 312
242 238 238 238 240 245 251 258 266 272 274 280 292 307 315 321 327 331 332 334 335 335 336 336 337 338 340 342 343 344 343 341 340 342 344 346 347 347 347 349 355 359 2 3 5 5 3 2 1 3 5 4 1 356 355 354 358 1 6 9 15 43 69 80 135 115 77 54 36 5 329 332 329 318 315 316 316 311 306 303 305 308 310 309 308
241 240 240 241 245 250 255 261 265 268 274 283 298 309 315 322 328 331 332 335 336 336 336 335 336 337 338 340 341 341 340 338 338 341 345 347 349 349 348 349 353 356 359 2 4 4 2 359 356 359 2 0 357 354 353 355 359 2 6 12 21 35 51 59 98 102 88 79 74 13 325 320 311 307 309 316 319 316 310 308 308 307 305 304 303
243 243 242 244 247 251 254 258 262 267 275 287 300 307 314 320 325 327 331 335 336 335 334 332 333 334 336 337 338 339 338 336 336 341 346 349 351 351 350 351 353 355 358 0 1 1 -0 357 353 355 358 356 354 351 351 355 359 2 6 13 22 29 37 40 50 102 109 132 144 180 279 293 294 296 302 310 316 316 312 309 306 302 297 295 294
243 244 244 245 247 250 253 257 262 268 276 287 296 303 310 315 319 322 327 332 332 331 330 328 329 331 333 333 334 335 334 333 334 340 345 349 350 350 352 353 352 353 355 356 356 355 356 355 352 350 350 351 350 350 350 353 358 2 4 8 15 20 19 13 354 114 137 190 224 238 262 272 278 286 292 298 304 307 306 304 302 299 294 291 288
243 245 247 249 252 254 257 260 263 267 273 281 288 295 302 307 311 316 320 321 322 324 325 324 324 326 327 328 328 329 330 331 332 336 340 344 345 346 349 351 350 350 351 351 349 348 350 350 347 344 343 346 348 348 348 350 355 359 3 6 7 8 3 354 323 281 248 257 266 270 274 272 269 271 276 279 283 288 291 293 295 296 295 295 293
244 248 252 255 258 259 260 261 261 263 266 272 281 290 297 302 308 311 312 311 313 318 321 321 319 320 322 322 322 324 326 327 328 329 331 337 339 338 343 345 345 345 344 345 345 343 342 341 340 336 336 343 350 349 345 345 351 355 0 6 2 352 342 335 317 297 281 272 275 279 281 277 266 261 265 271 274 277 282 285 289 294 297 300 299
246 250 253 256 259 261 262 260 258 259 263 269 278 287 294 301 307 309 308 306 308 313 315 316 314 315 316 315 316 317 320 323 325 325 324 328 331 331 335 338 337 337 336 338 341 340 335 331 331 330 328 337 351 354 347 340 345 350 355 1 355 341 331 320 315 308 289 277 275 275 277 277 266 258 258 264 271 276 280 283 288 293 298 302 302
249 251 254 259 261 263 262 260 259 261 266 272 278 285 292 301 308 309 308 305 305 308 309 309 310 311 311 311 311 311 313 317 321 322 319 320 324 326 330 332 331 331 332 333 337 339 334 324 321 323 323 328 343 354 353 345 346 348 347 350 346 340 331 318 311 305 291 277 270 268 271 273 266 257 256 261 269 276 282 285 289 292 296 300 300
253 255 258 261 261 262 262 261 263 265 270 274 278 284 293 302 310 314 313 309 305 305 305 305 308 312 310 308 309 310 311 312 317 319 316 315 320 325 328 329 328 328 332 335 334 334 331 321 314 317 321 325 333 351 358 355 349 346 342 340 342 339 329 318 312 303 294 286 274 268 268 268 262 258 260 263 270 277 284 287 290 292 294 296 297
255 258 260 263 264 263 261 260 261 264 270 276 282 287 295 303 312 318 317 312 306 303 303 304 309 312 309 305 306 308 310 311 315 317 315 314 320 326 328 327 325 325 331 336 333 329 326 319 312 311 317 326 332 344 354 352 342 341 338 337 339 333 323 317 314 307 301 296 283 273 271 271 263 260 262 265 270 276 282 288 290 290 292 294 294
256 259 260 262 267 268 264 261 260 263 271 280 288 292 297 305 313 317 317 312 305 301 303 305 307 309 305 300 300 302 305 308 313 317 315 315 320 325 328 328 327 325 328 332 331 326 321 317 311 307 312 322 330 339 346 340 328 331 333 331 332 324 317 318 314 308 304 299 287 274 271 273 268 263 262 262 267 274 280 285 287 288 292 294 293
254 258 262 263 267 272 269 263 264 269 278 286 291 295 300 307 312 316 318 313 302 297 301 302 302 302 299 292 295 298 301 309 319 324 319 316 319 322 325 327 327 325 326 327 326 323 319 315 311 306 308 315 324 333 339 330 314 319 324 324 325 318 313 315 310 304 304 302 293 279 271 270 265 262 261 262 268 274 279 283 286 288 292 293 293
254 259 266 267 268 274 272 263 265 273 279 281 285 294 301 309 315 318 318 311 295 287 296 299 297 294 290 290 296 300 301 311 322 325 319 315 317 320 322 323 324 324 324 323 320 319 317 315 313 307 306 310 317 326 332 328 315 309 312 313 314 313 310 309 305 302 303 304 298 284 271 264 263 263 263 267 273 276 279 284 286 289 293 294 293
256 259 262 263 266 268 263 256 255 260 262 265 276 290 302 313 318 318 317 309 289 283 293 297 295 290 287 291 299 304 305 310 315 317 314 311 315 319 322 322 323 323 324 322 318 318 317 315 313 308 303 305 309 317 321 324 321 311 306 304 304 308 306 303 300 298 300 299 295 285 273 264 262 263 266 270 274 276 280 285 287 291 293 294 294
257 257 256 257 257 256 253 250 248 248 249 258 271 282 301 313 318 319 319 310 293 286 292 296 295 294 295 299 305 309 308 307 308 310 309 308 313 318 321 320 320 321 322 321 318 318 316 313 312 308 303 302 303 307 311 314 315 311 304 297 297 302 301 298 294 291 295 295 291 285 275 266 261 262 265 269 271 274 279 284 287 291 292 292 294
254 254 254 255 253 250 246 242 241 242 245 256 262 274 299 312 318 322 321 312 298 292 297 302 303 304 306 311 314 312 307 303 302 304 303 304 307 313 316 316 316 317 317 318 317 315 313 311 309 305 304 305 301 297 300 300 300 303 304 295 292 295 295 295 291 287 292 292 289 284 276 268 264 265 265 265 267 273 278 285 289 291 291 290 290
256 257 257 257 255 250 244 242 242 243 247 253 259 281 303 314 322 326 322 313 304 300 305 310 312 313 314 317 314 306 300 296 294 295 297 298 302 306 308 310 310 309 310 312 312 311 309 307 304 299 296 304 307 297 291 288 287 293 300 291 286 290 291 293 291 286 287 289 288 285 278 271 265 265 267 266 265 270 277 284 291 294 293 290 287
269 272 269 265 260 255 248 246 246 246 248 255 273 293 307 317 325 328 323 316 311 307 305 304 304 306 308 304 293 285 285 286 288 293 302 304 304 303 303 304 302 300 303 305 305 305 303 300 299 294 285 292 303 301 293 286 282 286 292 281 278 287 292 292 291 287 285 285 284 282 278 273 267 265 270 273 268 267 273 280 289 294 293 290 285
288 290 287 278 269 262 253 246 243 243 249 262 282 297 310 321 329 329 322 317 313 304 295 290 292 300 305 296 287 289 292 294 296 300 311 315 307 303 306 304 298 295 298 299 300 300 298 297 298 295 285 284 291 294 294 291 287 288 285 271 266 279 288 289 288 287 286 286 284 282 279 275 271 268 270 273 271 268 271 277 285 290 290 286 281
284 289 289 283 273 263 252 243 237 235 243 262 279 296 313 325 330 326 318 312 306 299 295 291 294 306 315 308 298 305 311 312 310 302 313 319 307 305 310 304 296 294 296 296 296 295 295 297 298 298 293 288 286 286 289 292 295 296 287 274 265 266 272 277 279 282 284 284 283 280 278 275 271 268 268 270 271 271 270 274 280 286 286 281 275
276 284 287 284 276 266 251 239 233 231 239 255 271 295 317 326 327 321 317 312 305 302 302 299 300 312 326 324 305 308 320 321 310 290 306 317 309 310 311 303 296 293 291 291 290 290 292 294 297 299 296 292 289 285 285 287 293 297 291 280 270 263 265 268 271 276 279 281 281 276 272 271 266 263 263 264 267 269 269 268 273 281 283 277 269
282 288 289 283 279 273 262 250 239 236 244 256 274 303 319 323 319 316 316 309 302 303 305 303 305 312 328 334 319 321 334 333 321 296 297 303 303 308 310 301 294 292 288 285 286 288 289 288 290 295 296 294 291 288 287 285 286 289 287 280 270 262 265 266 265 270 275 278 278 275 271 268 265 261 261 261 262 266 266 264 268 275 279 273 265
284 286 287 282 277 269 264 262 251 247 258 269 288 309 319 318 308 307 308 299 298 304 307 308 309 313 323 333 334 339 343 338 331 317 302 294 291 294 296 291 290 290 288 284 282 284 286 285 283 287 291 291 289 290 290 286 280 277 273 270 267 260 258 255 250 257 268 273 274 272 268 268 267 262 259 259 260 264 266 265 264 267 272 269 261
284 286 288 285 282 274 265 259 252 256 268 279 294 307 315 311 296 296 298 295 300 304 308 311 312 314 320 328 335 338 335 331 331 327 317 301 285 278 279 284 286 287 290 288 283 282 284 283 282 283 284 283 285 291 293 289 282 272 264 262 265 261 255 251 244 246 256 263 266 268 265 262 263 260 256 256 259 262 265 264 260 257 263 265 259
284 287 287 283 284 280 265 251 250 264 272 280 290 301 310 304 293 296 297 296 301 303 306 310 312 315 319 323 323 321 323 324 325 327 327 316 291 276 276 282 282 284 286 285 283 281 281 281 281 280 279 279 281 288 293 293 292 284 271 263 264 260 251 250 250 248 250 254 259 263 264 261 258 256 252 251 255 258 261 260 256 252 255 258 255
284 286 288 287 285 279 260 246 250 263 268 276 286 296 304 300 295 301 302 298 299 301 304 308 312 315 318 319 318 314 314 316 317 318 324 323 306 288 284 284 282 285 287 285 283 281 279 280 281 280 278 278 280 284 288 292 297 296 285 270 266 264 256 252 253 250 248 252 260 260 261 262 257 253 248 246 249 253 256 256 253 251 250 250 249
280 283 286 290 288 284 271 251 253 261 263 271 284 294 300 300 298 306 308 303 301 303 306 309 311 313 315 318 316 312 308 307 307 306 309 311 307 300 295 290 287 291 296 297 296 291 286 285 285 284 280 279 278 280 283 289 296 299 294 276 266 267 263 256 251 248 246 248 258 260 256 257 256 251 245 242 246 250 252 252 252 251 248 246 243
277 280 278 275 276 286 295 269 268 274 268 271 285 295 302 305 301 306 308 303 301 303 305 308 310 311 314 316 315 310 305 305 305 303 300 298 298 300 299 296 295 299 304 308 310 305 297 290 288 287 285 282 279 278 280 286 293 297 298 280 264 263 262 257 249 248 247 243 248 256 253 250 252 251 244 237 241 247 249 249 250 249 246 243 239
275 276 269 266 271 279 280 269 278 285 275 273 284 292 300 304 300 302 303 299 298 299 301 305 308 309 310 312 312 310 308 306 305 302 298 296 296 299 300 300 301 305 307 307 308 307 302 297 292 289 288 285 282 281 280 283 289 290 294 285 267 262 261 259 253 251 249 240 240 249 249 247 248 248 245 238 238 243 246 245 245 244 242 239 235
270 269 266 267 271 275 272 269 276 278 272 272 280 287 295 299 299 300 301 298 297 296 298 303 305 306 307 309 309 308 306 302 300 297 295 296 299 302 304 305 307 308 307 304 304 303 303 300 298 294 291 288 285 283 282 283 285 284 287 287 274 264 262 260 255 252 248 239 237 242 245 245 245 245 243 240 238 241 244 243 240 239 238 236 233
265 265 264 265 267 269 266 265 269 269 268 271 276 284 290 294 297 299 299 298 296 294 295 299 302 304 306 307 307 306 305 302 300 299 300 305 308 311 314 315 314 313 307 304 302 301 301 300 299 297 293 291 287 283 280 279 282 281 282 286 277 264 260 257 251 249 246 239 237 238 239 242 244 244 241 239 239 240 242 240 237 237 237 235 234
259 257 256 259 261 261 259 260 264 266 267 270 274 281 286 291 295 297 298 296 295 294 294 297 301 304 305 306 305 305 304 303 301 303 309 313 314 317 319 318 314 310 305 302 302 300 300 300 298 295 291 289 289 287 282 278 280 281 281 283 279 268 262 257 249 246 243 238 238 237 236 237 240 243 241 239 239 239 239 237 235 236 236 233 234
251 249 253 259 260 260 261 263 266 267 270 272 276 282 287 290 293 296 297 296 295 295 296 299 302 303 304 303 302 303 302 299 300 304 310 311 311 314 315 313 308 306 305 305 303 300 299 301 299 295 291 287 289 291 289 284 281 279 278 279 277 269 264 257 246 241 239 237 237 238 236 234 235 237 237 236 237 238 237 235 233 234 234 232 232
249 251 258 264 263 262 263 265 268 270 273 276 278 282 286 290 293 295 297 296 294 294 296 299 301 301 301 300 299 299 298 297 300 303 304 305 307 310 310 308 306 306 308 305 301 301 303 303 301 297 293 290 289 289 290 289 282 277 278 281 277 267 261 257 246 240 238 238 240 240 237 234 233 233 234 234 234 235 235 234 233 232 233 231 230
253 257 263 266 264 262 262 264 267 270 272 273 276 279 284 288 291 293 294 294 292 292 294 296 299 299 298 298 297 297 297 297 301 302 303 306 307 308 308 308 308 308 309 305 302 306 306 303 301 296 292 292 290 286 287 288 284 281 281 283 280 267 259 258 250 241 237 236 240 240 236 233 231 231 233 233 233 234 234 233 232 232 232 232 230
259 262 264 264 262 261 261 263 265 266 267 269 273 277 282 286 288 290 291 291 290 290 292 294 296 298 297 297 296 296 296 297 300 302 304 307 308 308 309 310 311 310 308 306 304 306 305 302 299 293 290 291 289 285 285 286 287 288 284 282 280 268 258 256 249 241 236 234 237 237 235 233 230 229 229 230 232 232 233 231 230 231 232 232 231
261 262 263 263 261 260 261 262 263 264 265 268 273 276 280 283 286 288 288 289 289 288 290 292 294 296 296 296 296 296 296 297 299 302 305 307 308 309 310 312 313 313 311 308 306 306 305 303 300 296 293 291 288 285 284 283 285 288 284 282 283 269 255 253 248 241 237 234 235 236 235 233 232 231 227 226 228 230 231 230 229 230 230 231 232
258 259 261 261 261 261 261 263 263 265 267 270 273 276 280 283 285 287 288 288 288 288 289 291 293 294 294 295 295 296 296 297 299 301 304 307 310 312 313 315 315 316 316 315 313 310 307 305 302 299 296 291 287 285 284 281 279 283 283 283 284 268 251 252 247 240 238 234 234 236 234 233 234 233 229 226 225 227 230 230 229 230 230 230 232
254 255 258 259 259 260 261 262 263 265 268 270 273 276 279 283 285 286 287 287 287 287 289 291 292 293 293 294 294 294 295 296 298 301 303 307 310 312 313 314 315 316 317 317 317 314 310 305 301 297 294 291 287 284 284 282 277 278 279 281 283 266 249 255 248 237 237 234 232 234 233 232 233 233 231 229 227 226 227 230 230 231 232 231 232
252 252 254 255 256 257 258 259 261 263 267 269 272 277 279 282 284 285 286 286 286 286 288 290 291 292 293 293 293 292 293 295 297 301 304 307 309 312 312 313 314 315 316 316 316 316 313 307 301 297 294 292 290 284 281 281 278 276 275 280 283 265 248 260 254 238 235 234 232 233 232 230 231 233 232 231 231 228 226 228 229 230 232 231 232
Height
5890 5890 5889 5889 5888 5888 5887 5886 5886 5885 5885 5884 5883 5882 5881 5881 5880 5879 5878 5877 5876 5875 5875 5874 5872 5871 5870 5869 5868 5867 5865 5864 5863 5862 5860 5859 5857 5856 5854 5853 5852 5850 5849 5849 5848 5847 5847 5846 5845 5845 5845 5844 5844 5843 5843 5843 5842 5841 5841 5840 5840 5839 5839 5839 5839 5838 5838 5838 5837 5837 5837 5836 5836 5836 5836 5835 5834 5834 5833 5833 5832 5832 5832 5832 5831
5889 5889 5889 5888 5888 5887 5887 5886 5885 5884 5884 5884 5883 5881 5880 5880 5880 5879 5878 5877 5876 5875 5874 5873 5872 5871 5870 5869 5868 5867 5865 5864 5863 5862 5860 5859 5857 5856 5854 5853 5852 5851 5850 5849 5848 5848 5847 5846 5845 5845 5844 5844 5844 5844 5843 5843 5842 5842 5841 5840 5840 5839 5839 5839 5839 5838 5838 5838 5837 5837 5837 5837 5836 5836 5836 5835 5835 5834 5833 5833 5832 5832 5832 5832 5831
5888 5888 5888 5887 5887 5886 5886 5885 5884 5883 5884 5883 5882 5881 5880 5880 5880 5879 5878 5877 5876 5875 5874 5873 5872 5871 5870 5869 5868 5867 5866 5864 5863 5862 5861 5859 5858 5856 5855 5853 5852 5851 5850 5849 5849 5848 5847 5847 5846 5845 5845 5844 5844 5844 5844 5843 5842 5842 5841 5840 5840 5839 5839 5839 5838 5838 5838 5837 5837 5837 5837 5837 5837 5836 5836 5836 5835 5835 5834 5833 5833 5832 5832 5831 5831
5887 5887 5887 5886 5886 5885 5885 5884 5883 5883 5883 5882 5881 5881 5880 5880 5880 5879 5878 5877 5876 5875 5874 5873 5872 5871 5870 5869 5868 5867 5866 5865 5864 5863 5861 5860 5859 5857 5855 5854 5853 5852 5851 5850 5849 5848 5848 5847 5847 5846 5845 5845 5844 5844 5843 5843 5842 5841 5841 5840 5840 5839 5839 5839 5838 5838 5838 5837 5837 5837 5837 5837 5837 5837 5836 5836 5836 5835 5834 5833 5833 5832 5832 5831 5831
5885 5886 5886 5885 5885 5884 5884 5883 5882 5882 5882 5882 5881 5881 5880 5880 5880 5879 5878 5877 5876 5875 5874 5873 5872 5870 5869 5868 5868 5867 5866 5865 5864 5863 5862 5860 5859 5858 5856 5854 5853 5852 5851 5850 5849 5849 5848 5848 5847 5847 5846 5845 5845 5844 5843 5843 5842 5841 5840 5840 5840 5839 5839 5839 5838 5838 5838 5838 5838 5838 5837 5837 5837 5837 5836 5836 5836 5835 5834 5833 5833 5832 5832 5831 5831
5884 5884 5884 5884 5883 5883 5883 5882 5881 5881 5882 5881 5881 5881 5881 5880 5880 5879 5878 5877 5876 5875 5874 5873 5871 5870 5869 5868 5867 5867 5866 5865 5864 5863 5862 5861 5859 5858 5856 5855 5853 5852 5851 5850 5850 5849 5848 5848 5848 5847 5847 5846 5845 5845 5844 5843 5842 5841 5840 5840 5840 5840 5839 5839 5839 5838 5838 5838 5838 5838 5838 5837 5837 5837 5836 5836 5836 5835 5834 5834 5833 5832 5832 5831 5831
5882 5883 5883 5883 5882 5882 5882 5881 5881 5881 5881 5881 5881 5881 5881 5880 5880 5879 5878 5877 5876 5875 5873 5872 5871 5870 5869 5868 5867 5867 5866 5865 5864 5863 5862 5861 5859 5858 5856 5855 5854 5853 5852 5851 5850 5849 5849 5848 5848 5847 5847 5846 5846 5845 5844 5844 5842 5842 5841 5840 5840 5840 5839 5839 5839 5838 5838 5838 5838 5838 5838 5837 5837 5837 5836 5836 5836 5835 5835 5834 5833 5832 5832 5831 5831
5881 5881 5882 5882 5881 5881 5881 5881 5881 5881 5881 5881 5881 5881 5881 5880 5880 5879 5878 5876 5875 5874 5873 5871 5870 5869 5868 5867 5867 5867 5866 5865 5864 5863 5862 5861 5859 5858 5857 5856 5854 5853 5852 5851 5851 5850 5849 5848 5848 5847 5847 5846 5846 5845 5845 5844 5843 5842 5841 5840 5840 5839 5839 5839 5838 5838 5838 5838 5838 5838 5837 5837 5837 5836 5836 5836 5835 5835 5835 5834 5833 5832 5832 5831 5830
5880 5880 5880 5880 5880 5880 5880 5880 5881 5881 5881 5882 5882 5881 5881 5880 5879 5878 5877 5876 5874 5873 5872 5871 5870 5869 5868 5867 5867 5866 5866 5865 5864 5863 5862 5861 5860 5858 5857 5856 5855 5854 5853 5852 5851 5850 5849 5848 5848 5847 5847 5846 5846 5845 5845 5844 5843 5842 5841 5840 5840 5839 5839 5839 5838 5838 5838 5838 5838 5837 5837 5837 5837 5836 5836 5835 5835 5835 5834 5834 5833 5832 5831 5831 5830
5878 5879 5879 5879 5880 5880 5880 5880 5881 5881 5881 5882 5881 5881 5881 5880 5879 5878 5876 5875 5874 5873 5872 5871 5870 5869 5868 5867 5867 5866 5866 5865 5864 5863 5862 5861 5860 5859 5858 5856 5855 5854 5853 5852 5851 5850 5849 5848 5847 5847 5846 5846 5846 5845 5845 5844 5843 5842 5841 5840 5839 5839 5839 5838 5838 5838 5838 5838 5837 5837 5837 5837 5836 5836 5835 5835 5835 5834 5834 5833 5832 5832 5831 5830 5830
5877 5878 5878 5879 5880 5880 5880 5880 5881 5881 5881 5881 5881 5881 5880 5879 5878 5877 5876 5875 5873 5872 5871 5870 5870 5869 5868 5867 5866 5866 5865 5864 5863 5862 5861 5861 5860 5859 5858 5857 5856 5854 5853 5852 5851 5850 5849 5848 5848 5847 5846 5846 5845 5845 5844 5844 5843 5842 5841 5840 5839 5839 5838 5838 5838 5838 5837 5837 5837 5837 5837 5837 5836 5836 5835 5835 5834 5834 5833 5833 5832 5831 5831 5830 5829
5877 5878 5878 5879 5880 5880 5880 5881 5881 5881 5881 5881 5881 5880 5879 5878 5878 5877 5876 5874 5873 5872 5871 5870 5869 5869 5868 5867 5866 5865 5864 5863 5863 5862 5861 5860 5860 5859 5858 5857 5856 5855 5854 5853 5852 5851 5850 5849 5848 5847 5846 5846 5845 5844 5844 5843 5843 5842 5841 5840 5840 5839 5838 5838 5838 5837 5837 5837 5837 5837 5837 5836 5836 5835 5835 5834 5834 5833 5833 5832 5831 5831 5830 5830 5829
5877 5878 5879 5879 5880 5880 5880 5881 5881 5881 5881 5881 5880 5879 5878 5878 5877 5876 5875 5874 5873 5872 5871 5870 5869 5868 5867 5866 5865 5864 5863 5863 5862 5861 5860 5860 5859 5859 5858 5857 5856 5855 5854 5853 5852 5851 5850 5849 5848 5847 5846 5846 5845 5844 5844 5843 5842 5841 5841 5840 5840 5839 5838 5838 5837 5837 5837 5837 5837 5837 5836 5836 5836 5835 5834 5834 5833 5833 5833 5832 5831 5830 5830 5829 5829
5877 5877 5878 5879 5879 5879 5880 5880 5880 5880 5880 5880 5879 5879 5878 5877 5876 5875 5874 5873 5872 5871 5870 5869 5868 5867 5867 5866 5865 5864 5863 5862 5861 5861 5860 5859 5859 5858 5857 5856 5855 5854 5854 5853 5852 5851 5850 5849 5848 5847 5847 5846 5845 5844 5843 5843 5842 5841 5841 5840 5839 5839 5838 5838 5837 5837 5837 5837 5836 5836 5836 5835 5835 5835 5834 5833 5833 5832 5832 5832 5831 5830 5829 5829 5828
5876 5876 5877 5877 5878 5879 5879 5880 5880 5880 5880 5879 5879 5878 5877 5875 5874 5873 5872 5871 5871 5870 5869 5868 5867 5866 5866 5865 5864 5863 5862 5861 5861 5860 5859 5859 5858 5857 5856 5856 5855 5854 5853 5853 5852 5851 5851 5849 5848 5847 5847 5846 5845 5844 5843 5842 5842 5841 5840 5840 5839 5839 5838 5838 5837 5837 5837 5836 5836 5835 5835 5835 5834 5834 5833 5833 5832 5832 5832 5831 5830 5829 5829 5828 5827
5875 5875 5876 5877 5878 5879 5879 5879 5879 5879 5879 5878 5877 5876 5875 5874 5873 5872 5871 5870 5869 5869 5868 5867 5866 5865 5864 5863 5863 5862 5861 5861 5860 5859 5859 5858 5857 5856 5856 5855 5854 5853 5853 5852 5852 5851 5850 5849 5848 5847 5846 5846 5845 5844 5843 5842 5841 5841 5840 5839 5839 5838 5838 5838 5837 5837 5836 5836 5835 5835 5834 5834 5833 5833 5832 5832 5831 5831 5831 5830 5830 5829 5828 5827 5827
5874 5875 5876 5877 5878 5878 5878 5877 5877 5877 5877 5877 5876 5875 5874 5872 5871 5871 5870 5869 5868 5867 5866 5865 5864 5863 5863 5862 5861 5861 5860 5860 5859 5858 5858 5857 5856 5855 5855 5854 5854 5853 5852 5852 5851 5851 5850 5849 5848 5847 5846 5845 5845 5844 5843 5842 5841 5840 5840 5839 5839 5838 5838 5837 5837 5836 5836 5835 5835 5834 5834 5833 5832 5832 5832 5831 5831 5830 5830 5830 5829 5828 5827 5827 5826
5874 5875 5876 5876 5877 5876 5876 5876 5875 5876 5876 5875 5875 5874 5872 5871 5871 5870 5869 5868 5867 5866 5865 5864 5863 5862 5861 5860 5860 5859 5859 5858 5858 5857 5857 5856 5855 5855 5854 5854 5853 5852 5852 5851 5851 5850 5849 5849 5848 5847 5846 5845 5844 5844 5843 5842 5841 5840 5840 5839 5838 5838 5837 5837 5836 5836 5835 5835 5834 5834 5833 5832 5832 5831 5831 5831 5830 5830 5829 5829 5828 5827 5827 5826 5825
5874 5875 5875 5875 5875 5875 5874 5874 5874 5875 5875 5874 5873 5872 5871 5870 5870 5868 5867 5866 5865 5865 5863 5862 5861 5860 5859 5858 5858 5857 5857 5857 5857 5856 5856 5855 5854 5854 5853 5853 5852 5852 5851 5850 5850 5849 5849 5848 5847 5846 5845 5845 5844 5843 5843 5842 5841 5840 5839 5839 5838 5837 5837 5836 5836 5835 5835 5834 5834 5833 5833 5832 5831 5831 5830 5830 5829 5829 5829 5828 5827 5827 5826 5825 5824
5874 5874 5874 5874 5873 5873 5873 5874 5874 5874 5874 5873 5872 5871 5870 5870 5868 5867 5865 5864 5864 5863 5862 5860 5859 5858 5857 5856 5856 5855 5855 5856 5856 5855 5854 5854 5853 5853 5852 5851 5851 5851 5850 5849 5849 5848 5848 5847 5847 5846 5845 5844 5844 5843 5842 5842 5841 5840 5839 5838 5838 5837 5837 5836 5835 5835 5834 5834 5833 5833 5832 5831 5830 5830 5829 5829 5829 5828 5828 5827 5827 5826 5825 5824 5824
5873 5873 5873 5872 5872 5872 5872 5873 5873 5873 5872 5872 5871 5870 5870 5868 5867 5865 5864 5863 5862 5861 5860 5859 5857 5856 5856 5855 5854 5854 5853 5854 5854 5854 5853 5853 5852 5851 5851 5850 5850 5849 5849 5848 5848 5847 5846 5846 5846 5845 5844 5844 5843 5843 5842 5841 5841 5839 5838 5837 5837 5836 5836 5836 5835 5834 5834 5833 5832 5832 5831 5830 5830 5829 5828 5828 5828 5827 5827 5827 5826 5825 5824 5823 5823
5872 5872 5871 5871 5871 5871 5871 5871 5871 5871 5871 5870 5870 5869 5868 5867 5865 5864 5862 5861 5860 5859 5858 5857 5856 5855 5854 5853 5853 5852 5852 5852 5853 5853 5853 5852 5851 5850 5850 5849 5849 5848 5848 5847 5847 5846 5845 5844 5844 5844 5843 5843 5842 5842 5841 5841 5840 5839 5837 5837 5836 5836 5835 5835 5835 5834 5833 5832 5831 5831 5830 5829 5829 5828 5827 5827 5827 5827 5826 5826 5825 5824 5823 5822 5821
5870 5870 5869 5869 5869 5870 5870 5869 5869 5869 5869 5868 5868 5867 5866 5865 5864 5862 5861 5860 5859 5858 5857 5856 5854 5853 5853 5852 5851 5851 5851 5851 5852 5852 5852 5851 5850 5849 5849 5849 5848 5848 5847 5846 5845 5845 5844 5843 5842 5842 5842 5841 5841 5840 5840 5840 5840 5838 5837 5836 5836 5835 5834 5834 5834 5833 5832 5832 5831 5830 5829 5828 5828 5827 5827 5826 5826 5826 5825 5825 5824 5823 5822 5821 5820
5868 5868 5868 5868 5868 5868 5868 5867 5867 5867 5867 5866 5866 5865 5864 5863 5862 5861 5860 5858 5857 5856 5855 5854 5853 5852 5851 5851 5851 5851 5851 5851 5851 5851 5851 5850 5849 5848 5848 5848 5848 5847 5846 5845 5844 5843 5843 5842 5841 5840 5840 5839 5839 5839 5838 5839 5838 5838 5836 5835 5834 5834 5833 5833 5833 5832 5831 5831 5830 5829 5828 5828 5827 5826 5826 5826 5825 5825 5824 5823 5823 5822 5821 5820 5819
5866 5866 5866 5866 5865 5866 5866 5865 5865 5865 5865 5864 5864 5863 5863 5862 5861 5860 5859 5857 5856 5855 5853 5852 5851 5851 5851 5851 5851 5851 5851 5851 5850 5850 5850 5850 5849 5848 5847 5847 5846 5846 5845 5844 5843 5842 5841 5841 5840 5839 5838 5837 5837 5836 5836 5837 5837 5837 5836 5834 5833 5833 5832 5832 5831 5831 5830 5830 5830 5829 5828 5827 5826 5826 5825 5825 5824 5824 5823 5822 5821 5820 5820 5819 5818
5864 5864 5864 5863 5864 5864 5864 5864 5864 5863 5863 5862 5862 5861 5861 5861 5860 5859 5857 5855 5854 5853 5852 5851 5851 5851 5851 5851 5852 5852 5851 5850 5849 5849 5849 5848 5848 5847 5847 5845 5844 5844 5844 5843 5842 5841 5840 5840 5840 5838 5837 5836 5835 5835 5834 5835 5835 5835 5835 5833 5832 5832 5831 5831 5830 5830 5829 5829 5829 5828 5827 5826 5825 5825 5824 5824 5823 5822 5822 5821 5820 5819 5819 5818 5817
5862 5862 5862 5862 5862 5863 5863 5863 5862 5862 5861 5861 5860 5860 5860 5860 5859 5857 5856 5854 5853 5852 5851 5851 5851 5851 5852 5853 5853 5852 5850 5848 5848 5848 5848 5847 5846 5846 5845 5844 5843 5842 5841 5841 5840 5839 5839 5839 5838 5837 5836 5835 5834 5833 5833 5833 5833 5833 5833 5832 5831 5830 5830 5830 5829 5829 5828 5828 5827 5827 5826 5826 5825 5824 5823 5822 5822 5821 5821 5820 5819 5818 5818 5817 5816
5860 5861 5861 5861 5862 5863 5862 5862 5861 5860 5860 5860 5859 5859 5858 5858 5857 5856 5854 5853 5852 5851 5850 5850 5850 5851 5851 5852 5851 5849 5847 5846 5846 5846 5846 5846 5845 5844 5844 5843 5842 5841 5840 5839 5838 5838 5837 5837 5837 5836 5835 5834 5833 5831 5831 5830 5830 5830 5831 5831 5830 5829 5829 5829 5828 5827 5827 5827 5826 5826 5825 5825 5824 5823 5822 5821 5821 5820 5819 5819 5818 5817 5816 5816 5815
5860 5861 5861 5861 5862 5862 5862 5861 5860 5860 5859 5859 5858 5857 5857 5857 5856 5854 5853 5852 5851 5850 5849 5848 5848 5849 5849 5849 5848 5846 5846 5845 5845 5845 5845 5845 5844 5844 5843 5842 5841 5840 5839 5838 5837 5836 5836 5835 5834 5834 5833 5832 5831 5830 5829 5828 5827 5828 5829 5829 5829 5828 5828 5828 5827 5826 5826 5826 5825 5824 5824 5823 5823 5822 5821 5820 5820 5819 5818 5818 5817 5816 5815 5814 5814
5859 5860 5861 5861 5861 5861 5861 5860 5859 5858 5858 5858 5857 5857 5856 5856 5855 5853 5851 5850 5849 5847 5846 5846 5846 5847 5847 5847 5846 5845 5845 5845 5845 5845 5845 5844 5843 5843 5842 5841 5840 5839 5838 5837 5836 5835 5834 5833 5833 5832 5832 5831 5830 5828 5828 5827 5826 5825 5826 5827 5827 5827 5827 5826 5825 5824 5824 5824 5824 5823 5823 5822 5822 5821 5820 5819 5819 5818 5817 5817 5816 5816 5815 5814 5813
5856 5857 5858 5858 5859 5858 5858 5857 5857 5857 5856 5856 5856 5856 5856 5855 5854 5852 5849 5848 5847 5845 5844 5845 5845 5846 5846 5846 5845 5845 5845 5845 5844 5844 5844 5843 5842 5841 5840 5840 5839 5837 5836 5835 5834 5833 5832 5832 5831 5830 5830 5829 5828 5827 5826 5826 5825 5824 5824 5824 5824 5824 5825 5825 5824 5823 5822 5822 5822 5822 5821 5821 5820 5820 5819 5818 5818 5817 5816 5816 5815 5815 5814 5813 5812
5854 5854 5855 5856 5856 5856 5856 5855 5855 5855 5855 5854 5854 5855 5854 5853 5851 5849 5848 5846 5845 5844 5844 5844 5844 5845 5845 5844 5844 5844 5844 5843 5842 5842 5842 5841 5840 5839 5838 5838 5837 5835 5834 5833 5832 5832 5831 5830 5829 5828 5827 5826 5826 5825 5824 5824 5824 5823 5822 5822 5822 5822 5823 5823 5823 5822 5821 5820 5820 5820 5820 5819 5819 5818 5818 5817 5817 5816 5815 5815 5814 5814 5813 5812 5811
5853 5853 5854 5854 5854 5855 5855 5855 5854 5854 5854 5853 5853 5853 5852 5851 5849 5847 5847 5846 5844 5843 5843 5843 5843 5844 5844 5843 5842 5843 5842 5842 5841 5840 5840 5839 5839 5837 5836 5835 5834 5834 5832 5831 5830 5830 5829 5828 5826 5825 5824 5824 5823 5823 5822 5822 5822 5822 5821 5819 5820 5820 5820 5821 5821 5820 5820 5819 5818 5818 5818 5818 5817 5817 5817 5816 5816 5815 5814 5814 5813 5813 5812 5811 5810
5851 5851 5852 5852 5852 5853 5854 5854 5853 5853 5852 5852 5852 5852 5851 5849 5847 5846 5845 5844 5843 5842 5842 5842 5842 5842 5842 5842 5841 5842 5841 5840 5840 5839 5838 5837 5836 5835 5834 5833 5832 5831 5830 5829 5828 5827 5826 5825 5824 5823 5822 5821 5821 5821 5821 5820 5820 5819 5818 5817 5817 5817 5818 5818 5817 5817 5817 5817 5816 5816 5816 5816 5815 5815 5815 5815 5814 5814 5813 5813 5812 5812 5811 5810 5809
5849 5849 5849 5849 5850 5850 5851 5851 5851 5851 5851 5851 5850 5849 5849 5847 5845 5844 5844 5843 5842 5841 5840 5840 5840 5840 5840 5840 5840 5840 5839 5838 5837 5836 5835 5834 5833 5832 5832 5831 5830 5829 5827 5826 5825 5825 5824 5823 5822 5821 5820 5819 5818 5818 5818 5818 5817 5816 5815 5814 5814 5815 5815 5815 5814 5814 5815 5815 5815 5814 5814 5814 5814 5814 5813 5813 5813 5813 5812 5812 5811 5811 5810 5809 5809
5847 5847 5847 5847 5847 5847 5847 5848 5849 5849 5849 5848 5848 5847 5846 5845 5843 5843 5842 5842 5841 5840 5839 5838 5838 5838 5838 5839 5839 5839 5838 5836 5834 5833 5832 5831 5830 5829 5829 5829 5828 5826 5825 5824 5823 5822 5822 5821 5820 5819 5818 5817 5816 5815 5815 5814 5814 5814 5813 5812 5812 5813 5813 5813 5813 5813 5813 5813 5813 5812 5812 5812 5812 5812 5812 5812 5811 5811 5811 5810 5810 5810 5809 5809 5808
5845 5845 5844 5844 5844 5844 5844 5846 5847 5847 5847 5846 5845 5844 5844 5843 5841 5841 5841 5840 5840 5839 5838 5838 5836 5836 5836 5837 5838 5837 5836 5835 5833 5831 5830 5828 5827 5827 5826 5826 5825 5824 5823 5822 5821 5820 5820 5819 5819 5818 5817 5815 5814 5813 5813 5812 5811 5811 5811 5810 5811 5811 5811 5812 5812 5811 5811 5811 5811 5810 5810 5810 5810 5810 5810 5810 5810 5810 5809 5809 5809 5808 5808 5808 5807
5843 5843 5842 5842 5842 5842 5843 5844 5845 5845 5844 5843 5843 5842 5841 5840 5839 5839 5839 5838 5838 5838 5837 5837 5836 5835 5835 5835 5836 5836 5835 5833 5832 5830 5828 5827 5825 5825 5824 5823 5823 5823 5822 5822 5821 5820 5819 5818 5817 5816 5815 5814 5813 5811 5810 5809 5809 5808 5808 5808 5808 5809 5809 5810 5810 5809 5809 5809 5809 5808 5808 5808 5808 5808 5808 5808 5808 5808 5808 5808 5808 5807 5807 5807 5806
5841 5840 5840 5841 5841 5841 5841 5842 5843 5842 5841 5841 5840 5839 5838 5837 5836 5837 5837 5836 5836 5836 5835 5835 5835 5834 5833 5834 5834 5833 5833 5831 5830 5828 5826 5825 5824 5823 5823 5823 5823 5823 5822 5821 5820 5818 5817 5816 5815 5814 5813 5812 5811 5809 5808 5807 5806 5806 5805 5805 5805 5805 5806 5806 5807 5807 5806 5806 5806 5806 5805 5805 5805 5805 5806 5807 5806 5806 5806 5806 5806 5806 5806 5806 5805
5838 5838 5838 5839 5839 5839 5839 5839 5840 5840 5839 5839 5838 5837 5836 5835 5834 5834 5835 5835 5835 5835 5834 5834 5833 5832 5832 5832 5832 5831 5830 5828 5827 5825 5824 5824 5823 5823 5823 5823 5822 5821 5820 5818 5816 5815 5814 5813 5812 5811 5811 5810 5809 5807 5806 5805 5804 5803 5803 5803 5802 5802 5803 5803 5804 5804 5804 5804 5804 5803 5803 5803 5803 5803 5804 5805 5805 5804 5805 5805 5805 5805 5805 5805 5805
5836 5836 5836 5836 5837 5837 5837 5838 5839 5839 5838 5837 5836 5835 5834 5834 5833 5832 5833 5832 5833 5833 5832 5832 5831 5831 5830 5830 5829 5828 5827 5826 5825 5824 5823 5822 5822 5822 5822 5821 5820 5819 5817 5814 5813 5812 5811 5810 5809 5808 5808 5807 5806 5804 5803 5802 5801 5801 5800 5800 5800 5800 5800 5800 5800 5800 5800 5801 5801 5801 5800 5800 5801 5801 5802 5803 5803 5803 5803 5803 5804 5804 5804 5804 5804
5834 5834 5834 5835 5835 5835 5836 5837 5837 5837 5836 5835 5834 5833 5833 5832 5832 5831 5830 5830 5830 5831 5831 5830 5829 5829 5828 5828 5827 5826 5825 5823 5822 5821 5821 5820 5820 5819 5819 5819 5818 5817 5815 5813 5811 5810 5808 5807 5806 5805 5805 5804 5802 5801 5800 5800 5798 5798 5797 5797 5797 5797 5797 5797 5797 5796 5797 5797 5798 5799 5799 5798 5798 5799 5800 5801 5801 5801 5801 5802 5802 5802 5802 5803 5803
5832 5833 5833 5833 5833 5834 5834 5835 5835 5834 5834 5833 5832 5832 5831 5831 5830 5829 5829 5828 5828 5828 5828 5828 5827 5826 5826 5825 5824 5823 5822 5820 5819 5819 5818 5817 5817 5816 5817 5816 5815 5814 5812 5811 5810 5808 5806 5805 5804 5803 5802 5800 5799 5798 5797 5796 5795 5795 5794 5794 5793 5793 5793 5794 5793 5793 5793 5794 5796 5797 5797 5797 5796 5796 5797 5798 5799 5799 5799 5800 5800 5800 5801 5801 5801
5830 5831 5831 5831 5831 5832 5832 5832 5832 5832 5831 5831 5831 5830 5829 5828 5828 5827 5827 5826 5825 5825 5825 5825 5825 5824 5824 5823 5822 5821 5819 5818 5817 5817 5816 5815 5814 5814 5814 5813 5812 5811 5809 5808 5807 5805 5804 5803 5801 5799 5798 5797 5795 5794 5794 5793 5792 5791 5791 5791 5790 5789 5790 5790 5789 5788 5789 5792 5793 5794 5795 5795 5795 5794 5794 5795 5796 5797 5797 5797 5798 5798 5798 5799 5799
5828 5828 5828 5829 5828 5829 5829 5829 5829 5829 5829 5828 5828 5828 5827 5826 5825 5825 5824 5824 5823 5822 5822 5822 5823 5822 5822 5821 5819 5818 5817 5815 5815 5814 5813 5812 5811 5811 5811 5811 5809 5807 5806 5805 5803 5802 5802 5800 5798 5796 5794 5793 5791 5791 5791 5790 5789 5788 5787 5787 5786 5786 5786 5785 5785 5786 5787 5789 5790 5791 5792 5792 5792 5792 5792 5793 5794 5794 5795 5795 5796 5796 5796 5797 5797
5825 5825 5826 5826 5826 5826 5826 5826 5826 5826 5826 5826 5825 5825 5824 5824 5823 5822 5822 5821 5820 5820 5820 5820 5820 5819 5819 5818 5816 5815 5814 5813 5813 5811 5810 5809 5808 5808 5808 5807 5806 5804 5803 5801 5799 5799 5799 5797 5795 5793 5791 5789 5788 5788 5788 5787 5786 5785 5784 5784 5783 5782 5782 5782 5782 5783 5784 5786 5787 5788 5789 5789 5789 5789 5790 5790 5791 5792 5792 5793 5793 5794 5794 5795 5796
5824 5823 5823 5823 5823 5823 5823 5824 5824 5824 5824 5823 5823 5823 5822 5821 5821 5820 5819 5819 5818 5818 5817 5817 5817 5817 5816 5815 5813 5812 5811 5811 5810 5809 5807 5807 5806 5805 5804 5803 5802 5801 5800 5798 5796 5796 5795 5794 5792 5790 5789 5787 5785 5784 5784 5783 5782 5782 5780 5780 5779 5779 5779 5779 5779 5779 5781 5782 5783 5784 5785 5786 5786 5787 5787 5788 5788 5789 5789 5790 5791 5792 5793 5793 5794
5821 5821 5821 5821 5821 5820 5821 5821 5821 5821 5821 5821 5821 5820 5819 5819 5818 5817 5816 5816 5816 5815 5815 5814 5814 5814 5813 5812 5810 5809 5808 5808 5807 5807 5805 5804 5803 5802 5801 5800 5799 5798 5797 5796 5794 5792 5792 5790 5789 5787 5786 5785 5783 5781 5780 5779 5778 5778 5777 5776 5776 5776 5776 5775 5776 5776 5778 5779 5779 5781 5782 5783 5783 5784 5784 5785 5786 5786 5787 5788 5789 5790 5790 5791 5792
5819 5819 5818 5818 5818 5818 5818 5818 5818 5818 5818 5818 5818 5818 5817 5816 5815 5815 5814 5813 5813 5813 5812 5812 5811 5811 5810 5809 5808 5807 5805 5804 5804 5804 5803 5801 5800 5799 5798 5797 5796 5795 5794 5793 5791 5789 5788 5787 5785 5783 5782 5781 5780 5778 5777 5777 5775 5775 5774 5773 5773 5773 5772 5772 5772 5773 5774 5775 5776 5777 5778 5779 5780 5781 5782 5783 5783 5783 5784 5785 5786 5787 5788 5788 5789
5816 5816 5816 5816 5816 5816 5816 5816 5816 5816 5816 5816 5816 5815 5814 5814 5813 5813 5812 5811 5811 5810 5809 5809 5808 5808 5808 5807 5806 5805 5803 5802 5801 5801 5800 5799 5798 5797 5795 5794 5793 5791 5790 5789 5787 5786 5784 5783 5782 5780 5779 5778 5776 5775 5774 5773 5772 5771 5771 5770 5769 5769 5769 5768 5768 5769 5770 5771 5772 5773 5774 5776 5777 5777 5779 5780 5780 5781 5782 5783 5784 5784 5785 5786 5786
5814 5814 5814 5814 5814 5814 5814 5814 5814 5813 5814 5814 5813 5813 5812 5812 5811 5810 5810 5809 5808 5808 5807 5806 5806 5806 5805 5805 5804 5803 5801 5800 5799 5798 5797 5796 5795 5794 5793 5791 5790 5789 5787 5785 5784 5783 5781 5780 5778 5777 5776 5774 5773 5772 5770 5768 5768 5768 5767 5766 5766 5765 5764 5765 5765 5765 5766 5767 5768 5770 5771 5772 5773 5774 5776 5777 5777 5778 5779 5780 5781 5781 5782 5783 5784